Temp
-8 -8 -9 -9 -8 -8 -9 -9 -9 -9 -9 -9 -9 -8 -8 -8 -8 -8 -8 -8 -8 -8 -8 -8 -8 -8 -8 -7 -7 -7 -7 -7 -7 -7 -7 -7 -7 -7 -8 -8 -7 -7 -8
-7 -8 -8 -8 -8 -9 -9 -9 -9 -9 -9 -9 -9 -9 -8 -8 -9 -9 -8 -8 -8 -8 -8 -8 -8 -8 -8 -8 -7 -7 -7 -7 -7 -7 -7 -7 -7 -7 -7 -8 -7 -7 -7
-7 -7 -8 -8 -8 -9 -9 -9 -9 -9 -8 -8 -8 -9 -9 -8 -8 -9 -9 -9 -8 -8 -8 -8 -8 -8 -8 -8 -8 -8 -8 -7 -7 -7 -7 -7 -7 -7 -7 -7 -7 -8 -8
-7 -7 -8 -8 -8 -9 -9 -9 -9 -9 -9 -9 -9 -9 -9 -8 -9 -9 -9 -9 -9 -9 -9 -9 -9 -9 -8 -8 -8 -8 -8 -8 -7 -7 -7 -7 -7 -7 -7 -7 -7 -7 -7
-7 -7 -7 -8 -8 -8 -9 -9 -9 -9 -9 -9 -9 -9 -9 -9 -9 -9 -9 -9 -9 -9 -9 -9 -9 -9 -9 -9 -9 -8 -8 -8 -7 -7 -7 -7 -7 -7 -7 -7 -7 -7 -7
-7 -7 -7 -7 -8 -8 -8 -8 -8 -9 -9 -9 -9 -8 -8 -9 -9 -9 -10 -10 -10 -10 -9 -10 -10 -9 -9 -9 -9 -8 -8 -8 -7 -7 -7 -7 -7 -7 -7 -7 -7 -7 -7
-7 -7 -7 -7 -7 -8 -8 -8 -8 -8 -9 -9 -9 -9 -9 -8 -9 -9 -9 -9 -10 -10 -10 -10 -10 -9 -9 -9 -9 -8 -8 -8 -7 -7 -7 -7 -7 -7 -7 -7 -7 -7 -7
-7 -7 -7 -7 -7 -8 -8 -8 -8 -8 -9 -9 -9 -9 -9 -10 -9 -9 -10 -10 -10 -10 -10 -10 -10 -9 -9 -9 -8 -8 -8 -8 -8 -7 -7 -7 -7 -7 -7 -7 -7 -7 -7
-7 -7 -8 -8 -8 -8 -8 -8 -8 -9 -9 -9 -9 -9 -9 -9 -10 -10 -10 -10 -10 -10 -10 -10 -9 -9 -8 -8 -8 -8 -8 -8 -8 -7 -7 -7 -7 -7 -7 -7 -7 -7 -7
-7 -7 -8 -8 -8 -8 -8 -8 -8 -9 -9 -9 -9 -9 -9 -9 -10 -10 -10 -10 -10 -10 -10 -9 -9 -8 -8 -8 -8 -8 -8 -8 -7 -7 -7 -7 -7 -7 -7 -7 -7 -7 -7
-7 -7 -7 -8 -8 -8 -8 -8 -8 -8 -8 -9 -9 -9 -9 -9 -9 -10 -10 -10 -10 -10 -9 -9 -9 -9 -8 -8 -8 -8 -8 -7 -7 -7 -7 -7 -7 -7 -7 -7 -7 -7 -7
-7 -7 -7 -7 -8 -8 -8 -8 -8 -8 -8 -8 -9 -9 -9 -9 -9 -10 -10 -10 -10 -10 -10 -9 -9 -9 -8 -8 -8 -8 -8 -7 -8 -7 -7 -7 -7 -7 -7 -7 -7 -7 -7
-6 -7 -7 -7 -7 -8 -8 -8 -8 -8 -9 -8 -9 -9 -8 -9 -9 -9 -10 -10 -10 -10 -10 -9 -9 -9 -8 -8 -8 -8 -8 -8 -7 -7 -7 -7 -7 -7 -7 -8 -7 -8 -8
-6 -7 -7 -7 -7 -8 -8 -8 -8 -8 -8 -8 -8 -8 -8 -8 -9 -9 -9 -9 -9 -9 -9 -9 -9 -9 -9 -8 -8 -8 -8 -8 -7 -7 -7 -7 -8 -8 -8 -8 -8 -8 -8
-6 -7 -6 -7 -7 -7 -7 -7 -8 -8 -8 -8 -8 -8 -8 -8 -9 -9 -9 -9 -9 -9 -9 -9 -9 -9 -9 -8 -8 -8 -8 -8 -8 -8 -7 -8 -8 -8 -8 -8 -8 -8 -8
-6 -7 -6 -6 -7 -7 -7 -7 -7 -7 -8 -8 -8 -8 -8 -8 -8 -8 -8 -8 -8 -8 -8 -8 -8 -8 -8 -8 -8 -8 -8 -8 -8 -8 -8 -8 -8 -9 -8 -8 -9 -8 -9
-6 -6 -6 -6 -6 -7 -7 -7 -7 -8 -7 -8 -7 -7 -7 -7 -8 -8 -8 -8 -8 -8 -8 -8 -8 -8 -8 -8 -9 -8 -8 -8 -8 -8 -8 -8 -8 -9 -9 -9 -9 -9 -9
-6 -6 -6 -6 -6 -7 -7 -7 -7 -7 -7 -8 -8 -8 -7 -7 -7 -7 -7 -8 -7 -7 -7 -7 -8 -8 -8 -8 -8 -8 -8 -9 -9 -8 -9 -9 -9 -9 -9 -9 -9 -9 -9
-5 -6 -6 -6 -6 -7 -7 -7 -7 -7 -7 -7 -7 -7 -7 -7 -7 -7 -7 -7 -7 -7 -7 -7 -7 -8 -8 -8 -8 -8 -9 -9 -9 -9 -9 -9 -9 -9 -9 -9 -9 -9 -9
-6 -5 -6 -6 -6 -7 -7 -7 -7 -7 -7 -7 -7 -7 -7 -7 -7 -7 -7 -7 -7 -7 -7 -7 -7 -7 -8 -8 -8 -8 -8 -9 -9 -9 -9 -9 -9 -9 -9 -9 -9 -9 -9
-5 -5 -5 -6 -6 -6 -7 -7 -7 -7 -7 -7 -7 -7 -7 -7 -7 -7 -7 -7 -7 -7 -7 -7 -7 -7 -7 -8 -8 -8 -8 -9 -9 -9 -9 -9 -9 -9 -9 -10 -10 -10 -9
-5 -5 -5 -5 -6 -6 -6 -6 -6 -6 -6 -7 -7 -7 -7 -7 -7 -7 -7 -7 -6 -7 -7 -7 -7 -7 -7 -7 -8 -8 -8 -9 -9 -9 -9 -9 -9 -9 -9 -10 -10 -9 -9
-6 -5 -5 -5 -5 -5 -6 -7 -7 -7 -7 -6 -7 -7 -7 -7 -7 -7 -7 -7 -7 -6 -7 -7 -7 -7 -7 -7 -8 -8 -8 -9 -9 -9 -9 -9 -9 -9 -9 -9 -10 -9 -9
-6 -6 -5 -5 -5 -5 -5 -6 -6 -7 -6 -6 -7 -7 -7 -7 -7 -7 -7 -6 -7 -6 -7 -7 -7 -7 -7 -7 -8 -8 -8 -8 -9 -9 -9 -9 -9 -9 -9 -9 -10 -9 -9
-6 -6 -6 -6 -6 -6 -6 -6 -6 -6 -6 -6 -6 -7 -7 -6 -6 -6 -7 -6 -6 -6 -6 -6 -7 -7 -7 -7 -7 -8 -8 -8 -8 -9 -9 -9 -9 -9 -9 -9 -10 -9 -9
-6 -6 -6 -5 -5 -6 -6 -6 -6 -6 -6 -7 -7 -6 -7 -6 -6 -6 -6 -7 -6 -6 -6 -6 -7 -7 -7 -7 -7 -8 -8 -8 -8 -8 -8 -9 -8 -8 -9 -9 -9 -9 -9
Height
5896 5896 5896 5896 5896 5895 5896 5895 5896 5896 5897 5897 5899 5900 5901 5904 5904 5903 5903 5904 5904 5903 5904 5905 5905 5906 5908 5909 5910 5911 5912 5913 5914 5914 5915 5916 5915 5915 5915 5915 5914 5914 5913
5899 5898 5897 5897 5897 5896 5896 5896 5896 5897 5898 5900 5902 5902 5902 5903 5905 5904 5905 5906 5905 5905 5905 5906 5907 5909 5909 5911 5912 5913 5914 5915 5916 5917 5918 5918 5917 5917 5917 5918 5917 5915 5915
5902 5901 5900 5899 5898 5897 5897 5897 5897 5899 5900 5902 5902 5902 5902 5905 5906 5906 5907 5905 5906 5906 5906 5907 5909 5910 5911 5913 5914 5914 5916 5917 5919 5921 5921 5920 5920 5920 5920 5920 5919 5918 5917
5905 5904 5903 5902 5900 5899 5898 5899 5900 5901 5902 5903 5904 5904 5906 5908 5907 5907 5906 5906 5906 5906 5907 5909 5910 5912 5913 5914 5916 5917 5918 5920 5921 5923 5923 5923 5922 5923 5923 5922 5922 5921 5921
5907 5907 5906 5905 5903 5901 5901 5901 5903 5904 5905 5905 5906 5907 5907 5907 5907 5907 5907 5906 5907 5908 5910 5910 5913 5914 5915 5916 5918 5920 5921 5922 5923 5925 5925 5925 5925 5925 5926 5925 5925 5924 5923
5910 5909 5909 5907 5906 5906 5905 5905 5906 5907 5908 5908 5909 5909 5908 5907 5908 5907 5907 5908 5909 5909 5910 5912 5913 5915 5917 5919 5921 5922 5923 5924 5926 5927 5928 5928 5928 5928 5929 5928 5927 5926 5926
5913 5912 5912 5911 5911 5909 5909 5909 5909 5909 5910 5911 5911 5911 5910 5910 5910 5910 5911 5911 5911 5913 5912 5914 5916 5917 5919 5921 5922 5923 5924 5926 5928 5930 5931 5931 5931 5931 5931 5931 5930 5929 5929
5916 5915 5915 5915 5914 5914 5913 5912 5912 5913 5913 5914 5914 5914 5914 5914 5914 5914 5914 5915 5916 5916 5916 5917 5918 5919 5920 5922 5923 5924 5926 5928 5930 5932 5934 5934 5934 5934 5934 5934 5933 5932 5932
5919 5919 5918 5918 5918 5917 5917 5916 5916 5916 5916 5916 5915 5917 5917 5916 5916 5916 5916 5917 5917 5918 5919 5920 5921 5921 5922 5924 5925 5926 5928 5930 5932 5935 5936 5937 5937 5937 5937 5936 5936 5936 5935
5922 5921 5921 5921 5921 5920 5920 5919 5919 5919 5919 5919 5919 5920 5920 5919 5920 5919 5920 5920 5920 5920 5921 5922 5923 5924 5925 5926 5928 5929 5930 5932 5934 5937 5939 5939 5940 5940 5940 5940 5939 5939 5938
5924 5924 5924 5923 5923 5923 5923 5923 5922 5922 5922 5923 5923 5923 5923 5924 5924 5924 5923 5923 5922 5922 5923 5925 5926 5927 5928 5929 5931 5932 5934 5936 5938 5940 5941 5942 5943 5943 5943 5943 5943 5942 5941
5926 5926 5926 5927 5926 5926 5927 5927 5926 5925 5925 5926 5926 5927 5927 5927 5927 5926 5926 5925 5925 5925 5926 5928 5929 5929 5930 5931 5933 5935 5937 5939 5941 5943 5944 5945 5946 5946 5947 5947 5946 5945 5945
5928 5928 5929 5929 5929 5929 5929 5929 5929 5928 5928 5928 5929 5929 5930 5930 5929 5929 5929 5928 5928 5928 5930 5931 5931 5932 5932 5934 5936 5938 5940 5943 5945 5946 5948 5949 5949 5950 5951 5951 5950 5950 5949
5931 5931 5931 5931 5931 5931 5931 5931 5932 5931 5931 5931 5932 5933 5934 5933 5933 5933 5932 5932 5932 5933 5934 5935 5935 5935 5936 5937 5938 5941 5943 5946 5948 5950 5951 5952 5953 5954 5955 5954 5954 5954 5953
5933 5933 5933 5934 5934 5933 5933 5934 5934 5935 5934 5934 5936 5937 5937 5937 5936 5936 5936 5936 5936 5937 5938 5940 5940 5940 5940 5941 5943 5945 5948 5950 5952 5954 5955 5956 5957 5958 5959 5958 5958 5957 5957
5935 5935 5935 5936 5936 5936 5936 5937 5937 5937 5937 5938 5938 5939 5940 5940 5940 5940 5940 5940 5941 5942 5943 5943 5944 5945 5945 5946 5948 5950 5952 5954 5956 5957 5958 5960 5962 5962 5962 5963 5962 5962 5961
5937 5937 5938 5938 5938 5939 5939 5939 5940 5940 5940 5941 5941 5942 5943 5944 5944 5944 5945 5945 5945 5946 5947 5948 5948 5949 5950 5950 5951 5954 5956 5957 5959 5961 5963 5964 5965 5966 5967 5966 5966 5966 5965
5938 5939 5940 5940 5940 5941 5942 5941 5942 5943 5943 5943 5944 5945 5946 5946 5947 5947 5948 5948 5949 5949 5950 5951 5951 5952 5954 5955 5956 5958 5960 5962 5964 5966 5967 5968 5969 5970 5970 5970 5970 5969 5968
5939 5940 5942 5942 5941 5942 5944 5944 5944 5945 5946 5946 5946 5947 5948 5949 5950 5951 5951 5951 5952 5952 5953 5954 5955 5955 5957 5958 5959 5961 5963 5966 5967 5969 5970 5971 5972 5973 5974 5974 5973 5972 5971
5940 5941 5942 5943 5943 5943 5945 5946 5946 5947 5947 5949 5949 5950 5950 5951 5952 5953 5954 5955 5955 5955 5956 5957 5958 5959 5960 5962 5963 5964 5966 5968 5969 5971 5972 5973 5974 5975 5976 5976 5976 5975 5974
5940 5941 5942 5943 5944 5945 5945 5947 5947 5948 5949 5950 5951 5952 5953 5953 5954 5955 5957 5958 5958 5958 5959 5960 5961 5961 5963 5964 5966 5967 5968 5970 5971 5972 5974 5975 5976 5977 5978 5978 5978 5977 5976
5941 5942 5942 5943 5945 5946 5947 5948 5949 5950 5951 5952 5952 5954 5955 5956 5957 5958 5959 5959 5960 5960 5961 5962 5963 5963 5964 5966 5968 5969 5971 5972 5972 5974 5975 5976 5978 5978 5979 5979 5979 5979 5978
5940 5941 5942 5943 5945 5946 5947 5948 5949 5950 5951 5953 5954 5955 5956 5957 5958 5959 5960 5961 5961 5962 5962 5963 5964 5965 5966 5967 5968 5971 5971 5973 5974 5975 5976 5977 5978 5979 5979 5980 5980 5980 5979
5938 5940 5942 5943 5943 5945 5946 5947 5949 5951 5952 5953 5955 5956 5957 5958 5959 5960 5961 5961 5962 5963 5964 5964 5965 5966 5967 5968 5969 5970 5972 5974 5975 5977 5977 5978 5979 5979 5980 5980 5980 5980 5980
5935 5938 5940 5942 5943 5944 5945 5946 5948 5950 5952 5953 5955 5956 5956 5957 5959 5960 5961 5962 5964 5965 5965 5965 5967 5967 5967 5968 5969 5971 5972 5974 5975 5977 5978 5978 5979 5980 5980 5980 5980 5980 5979
5934 5935 5937 5940 5942 5943 5944 5946 5947 5949 5951 5952 5953 5955 5956 5957 5958 5960 5961 5963 5964 5965 5966 5967 5967 5968 5968 5968 5970 5971 5972 5973 5975 5977 5978 5978 5978 5979 5980 5980 5980 5979 5979
Wind_Speed
16 17 17 15 14 14 13 15 17 16 16 15 15 14 12 10 11 10 10 10 11 12 11 10 10 10 9 10 12 14 14 16 18 20 19 18 17 16 15 13 13 14 16
15 16 16 15 12 11 11 11 12 13 13 13 12 12 10 8 7 7 7 8 10 11 11 11 10 9 9 10 12 14 16 18 19 19 18 18 17 16 15 15 16 17 16
15 17 16 15 14 11 11 11 11 12 11 11 11 10 9 6 5 6 7 7 8 10 11 11 10 10 10 11 13 15 16 18 19 18 18 19 17 18 18 17 18 17 17
16 17 18 18 17 15 13 13 13 13 11 10 9 9 9 8 7 6 7 7 8 10 11 11 11 12 13 13 14 16 17 19 20 18 18 18 20 17 17 17 18 17 16
16 17 18 19 20 18 15 14 14 13 13 13 12 11 10 8 7 7 8 8 10 11 11 12 12 13 14 15 16 17 19 20 20 18 17 18 18 17 17 18 17 16 16
16 17 18 19 20 21 19 17 16 15 16 16 15 13 11 9 10 12 12 11 11 11 9 12 18 15 15 16 16 18 20 20 19 17 16 17 18 17 18 17 16 16 16
15 17 17 17 19 21 22 20 19 19 19 18 15 16 16 17 18 19 19 17 16 14 16 22 18 16 16 16 17 19 20 20 18 17 16 17 18 18 18 16 17 18 19
14 15 16 17 18 19 20 20 20 19 19 18 16 18 18 19 18 17 16 17 15 14 15 17 16 15 16 17 19 20 21 20 19 18 16 16 18 18 17 18 19 20 19
14 13 15 16 17 16 18 19 19 19 18 18 15 19 19 18 16 15 14 14 13 13 14 17 16 15 16 18 18 20 21 21 20 18 16 17 18 18 18 20 20 20 20
13 13 14 14 15 16 16 17 19 18 19 18 19 18 18 17 16 15 14 11 9 10 12 14 13 14 16 17 19 20 21 21 20 18 17 18 18 18 19 20 19 20 20
15 14 14 15 15 16 17 17 18 17 18 17 17 17 15 14 14 13 13 12 13 11 13 14 12 16 15 17 19 20 21 21 20 19 19 19 18 19 20 19 20 20 20
14 15 14 15 16 15 17 17 18 18 19 18 17 16 15 15 13 11 12 12 16 13 16 15 13 16 16 17 19 21 22 21 20 20 19 19 19 19 19 19 20 21 21
12 13 14 13 14 15 16 17 18 19 19 18 16 16 14 13 14 13 17 16 17 20 17 16 16 16 16 18 20 22 23 22 21 21 20 19 19 20 19 20 21 21 22
10 12 12 12 13 13 15 16 17 16 19 18 17 15 14 15 16 16 18 18 18 19 17 17 16 17 18 22 25 25 25 23 22 21 19 19 20 20 20 21 22 22 22
10 10 12 11 12 13 14 14 14 14 16 15 15 15 17 16 17 18 18 18 17 17 16 16 17 19 23 26 28 26 24 23 22 20 20 19 20 21 22 22 21 21 21
9 9 11 12 12 13 14 14 14 15 15 16 16 16 15 16 17 17 17 17 16 16 16 17 19 21 25 28 27 26 24 22 21 20 20 20 20 21 22 21 20 21 21
8 8 10 12 13 12 13 14 13 13 13 14 15 15 15 15 16 16 17 16 15 15 15 17 20 23 24 26 26 24 23 21 20 19 19 20 21 21 20 19 20 21 22
8 8 9 11 12 12 11 13 13 13 14 15 15 15 15 13 12 13 15 15 16 17 15 16 18 21 22 22 22 21 19 18 18 18 18 19 20 19 18 19 20 21 22
9 8 8 10 10 11 11 12 13 12 14 14 15 15 14 13 11 9 11 12 13 15 15 15 16 19 20 20 21 19 17 16 16 16 17 18 18 18 18 19 19 20 22
11 10 8 9 10 9 10 10 11 11 12 13 12 12 12 11 10 10 9 9 9 11 12 13 14 15 17 17 17 17 15 15 15 15 17 17 17 17 17 16 17 17 19
11 11 10 8 8 10 10 10 9 10 11 12 12 11 11 11 9 8 8 9 10 8 9 10 11 13 13 14 15 14 14 15 15 15 15 15 15 14 14 13 13 14 15
12 12 12 11 8 8 8 9 10 8 9 10 9 9 10 9 8 8 8 7 7 8 9 9 9 10 12 12 12 11 12 14 15 14 15 14 12 12 12 10 9 9 10
15 13 12 11 10 7 9 8 9 10 7 8 9 7 8 9 8 8 7 6 5 5 6 7 8 8 10 12 11 11 11 13 14 14 13 13 12 10 10 8 6 5 6
17 15 14 12 11 10 8 9 9 8 9 8 8 7 6 8 9 9 8 6 5 5 5 6 7 9 9 11 10 10 9 11 11 13 13 12 11 10 8 6 3 2 2
18 17 16 15 13 11 10 8 7 8 7 6 6 5 6 7 7 7 8 10 7 6 6 6 5 6 8 9 11 9 9 11 11 11 12 11 9 7 7 6 3 1 3
16 18 17 16 15 14 13 12 9 8 8 8 6 6 6 6 7 9 9 8 9 9 8 7 6 6 7 8 9 9 8 10 11 12 12 12 10 9 8 8 6 4 4
Wind_Direction
78 78 81 81 84 95 107 115 114 116 116 116 123 125 118 121 122 123 124 126 124 117 121 128 129 124 132 129 135 133 127 121 124 122 116 113 104 99 99 97 96 97 93
79 79 77 70 73 88 104 115 119 120 127 128 130 122 118 120 120 121 137 131 125 126 125 123 127 131 131 139 148 136 130 126 130 122 115 105 98 95 97 102 99 93 91
84 79 77 76 73 80 101 122 129 135 138 135 130 126 116 118 134 144 145 132 143 134 133 129 130 129 129 136 140 132 128 132 134 126 115 103 97 101 99 97 95 93 91
85 83 80 75 71 78 97 119 132 139 138 131 127 125 130 152 161 159 145 146 141 146 142 133 133 130 130 126 134 135 135 137 132 124 112 103 102 98 98 99 95 92 91
85 81 78 75 74 75 87 106 119 124 129 131 129 126 131 142 156 156 140 143 147 149 142 142 128 127 130 131 136 140 139 137 130 122 115 108 108 106 102 98 93 91 94
88 81 79 75 76 79 86 99 109 111 120 117 116 115 116 122 124 110 109 114 128 138 154 147 127 128 136 136 139 138 136 136 129 121 115 108 111 109 107 98 92 97 95
90 89 85 81 80 84 88 96 102 110 112 111 106 102 105 109 105 107 109 108 106 106 101 130 120 128 136 137 136 137 135 132 131 121 113 109 112 109 101 94 97 98 97
94 90 91 89 85 87 91 92 96 105 108 105 106 104 102 101 102 100 100 101 103 104 105 109 120 118 127 134 137 135 133 128 125 120 112 111 110 107 97 98 97 97 95
95 93 92 91 89 89 92 94 99 102 99 96 93 103 94 95 101 102 100 98 101 106 108 128 112 112 126 133 137 134 133 126 121 119 114 115 109 103 100 100 98 96 91
93 96 94 93 91 90 92 93 94 97 97 96 91 93 94 91 91 99 99 93 104 114 113 122 115 114 125 135 134 133 131 125 121 122 121 115 112 105 101 99 98 93 87
89 92 93 92 95 92 94 97 94 93 95 95 92 89 96 96 94 90 99 91 94 125 114 124 121 114 127 130 132 129 126 124 124 124 123 118 114 106 104 100 96 89 83
93 88 94 95 99 99 99 93 94 92 94 95 92 93 94 90 89 96 103 93 86 108 123 116 110 108 118 127 128 127 125 124 126 125 123 119 111 108 106 101 93 86 80
96 88 87 95 101 101 103 103 98 95 96 95 94 91 90 92 93 94 97 92 91 95 100 110 107 109 116 122 127 125 125 126 128 125 123 115 112 111 106 98 91 84 79
99 100 91 91 102 106 101 106 103 99 97 100 100 101 100 97 97 94 97 95 91 95 97 99 102 105 109 120 124 125 126 126 126 125 121 117 113 110 107 99 89 82 77
106 109 107 97 95 104 105 102 106 104 101 103 103 102 100 101 100 99 93 91 91 93 97 99 103 107 114 120 122 122 122 124 126 126 121 116 112 112 105 96 90 82 76
114 113 115 108 98 95 101 100 108 106 107 105 106 106 105 107 106 103 101 99 99 99 101 102 105 112 118 119 119 120 124 126 128 125 121 116 115 111 103 97 89 80 73
125 111 120 118 112 99 97 105 109 115 105 108 104 108 106 103 109 111 110 107 102 101 103 108 109 116 120 122 122 125 128 130 129 122 118 118 115 109 105 97 85 75 69
141 119 121 119 120 112 104 107 112 115 116 110 110 107 108 106 104 108 111 112 112 109 111 114 118 125 128 127 126 128 130 130 124 119 118 115 115 110 104 94 84 77 70
158 141 135 126 121 120 116 112 113 119 124 122 118 114 110 117 119 113 108 110 111 113 114 117 120 129 138 138 135 132 131 128 123 124 120 120 118 113 104 94 84 76 69
171 159 149 131 125 128 122 121 121 118 124 134 133 125 121 125 126 131 125 122 121 118 120 118 120 127 137 142 144 138 134 132 132 131 128 130 125 117 107 95 83 71 68
179 175 160 149 143 137 136 141 138 131 124 133 139 133 128 125 127 130 130 131 137 138 128 125 119 126 129 143 150 148 146 141 140 138 136 136 134 125 114 101 86 70 68
188 181 180 170 170 158 146 139 149 142 133 133 138 143 143 141 137 136 141 136 145 150 147 136 132 131 147 146 151 155 158 155 152 148 144 142 143 137 127 116 97 67 66
195 188 192 187 185 176 162 161 153 161 164 140 144 147 152 158 168 163 151 141 142 152 142 135 144 149 156 158 153 161 168 169 162 157 154 154 159 158 146 135 115 67 53
196 197 198 200 199 192 184 176 177 167 165 160 154 165 172 158 170 182 180 178 161 158 152 140 146 152 163 165 161 162 170 179 174 170 170 171 175 180 168 159 137 60 57
199 197 202 206 202 205 201 191 190 193 196 167 150 168 194 192 176 176 194 199 191 191 183 175 166 163 169 180 176 180 172 185 191 188 184 186 191 195 194 195 193 147 170
209 206 205 205 205 206 209 205 203 206 212 202 193 192 209 212 209 197 189 200 204 210 214 203 194 195 188 182 188 191 197 194 200 203 201 200 194 198 207 215 222 218 214